sat.trackr.live / text

‹ back to catalog

STARLINK-35287

NORAD 65754 · 2025-216W

PAYLOAD ACTIVE UNKNOWN

§ Identity

Operator
Country
US
Launch date
2025-09-25
Launch site
AFETR
Launch vehicle
Mass (kg)
RCS (m²)

Purposes: comms

External: N2YO · Heavens-Above · Gunter

§ Orbital elements

Epoch: 2026-09-19T10:13:42.672576Z

Period
93.85 min
Inclination
53.1582°
Eccentricity
0.0001534
Mean motion
15.34402113 rev/d
Perigee alt
461.6 km
Apogee alt
463.7 km
Semi-major
6,840.8 km
B*
4.3144e-4
RAAN
151.0112°
Arg perigee
57.0265°
Mean anomaly
303.0885°
Rev number
5,619

§ Raw data

STARLINK-352871 65754U 25216W   26262.42618834  .00014229  00000+0  43144-3 0  99932 65754  53.1582 151.0112 0001534  57.0265 303.0885 15.34402113 56194

JSON: /api/v1/satellites/65754 · /tle

For live sub-satellite position, see the globe view (requires WebGL).

§ Visibility from observer

Set your observer location to see the next 7 days of passes ≥ 10°. The values pass through the URL so the page stays shareable.

No JS? Fill the form by hand. The geolocation button needs JavaScript.